Location: Castillon
(43.0896°N, 0.2156°E)
Time: 10:13:10
(UTC+00:00)

Cosmos 1544 Rocket - Pass Details

Date: 26 October 2021
Orbit: 603 x 631 km, 82.5° (Epoch: 08 December)

Event Time Altitude Azimuth Distance (km) Brightness Sun altitude
Rises 05:20:47 0° 346° (NNW) 2,905 6.8 -12.6°
Reaches altitude 10° 05:23:04 10° 341° (NNW) 1,989 5.9 -12.1°
Maximum altitude 05:27:19 49° 267° (W) 792 3.7 -11.4°
Drops below altitude 10° 05:31:30 10° 192° (SSW) 1,957 6.1 -10.6°
Sets 05:33:44 0° 187° (S) 2,853 7.0 -10.2°
